SCP
0 0 0 0 0 0 0 0 0 0 0 0 0 0 0 0 0 0 0 0 0 0 0 1 1 0 0 1 1 1 1 1 1 1 1 1 0 0 0 0 0 0 0 0
0 0 0 0 0 0 0 0 0 0 0 0 0 0 0 0 0 0 0 0 0 0 1 1 1 1 1 1 1 1 1 1 1 1 1 1 0 0 0 0 0 0 0 0
0 0 0 0 0 0 0 0 0 0 0 0 0 0 0 0 0 0 0 0 0 0 1 1 1 1 1 1 1 1 1 1 1 1 1 1 1 0 0 0 0 0 0 0
0 0 0 0 0 0 0 0 0 0 0 0 0 0 0 0 0 0 0 0 0 0 1 1 1 1 1 1 1 1 1 1 1 1 1 1 1 0 0 0 0 0 0 0
0 0 0 0 0 0 0 0 0 0 0 0 0 0 0 0 0 0 0 0 0 0 1 1 1 1 1 1 1 1 1 1 1 1 1 1 0 0 0 0 0 0 0 0
0 0 0 0 0 0 0 0 0 0 0 0 0 0 0 0 0 0 0 0 0 0 1 1 1 1 1 1 1 1 1 1 1 1 1 1 1 0 0 0 0 0 0 0
0 0 0 0 0 0 0 0 0 0 0 0 0 0 0 0 0 0 0 0 0 0 1 1 1 1 1 1 1 1 1 1 1 1 1 1 1 0 0 0 0 0 0 0
0 0 0 0 0 0 0 0 0 0 0 0 0 0 0 0 0 0 0 0 0 0 1 1 1 1 1 1 1 1 1 1 1 1 1 1 0 0 0 0 0 0 0 0
0 0 0 0 0 0 0 0 0 0 0 0 0 0 0 0 0 0 0 0 0 0 0 1 1 1 1 1 1 1 1 1 1 1 1 1 0 0 0 0 0 0 0 0
0 0 0 0 0 0 0 0 0 0 0 0 0 0 0 0 0 0 0 0 0 0 0 1 1 1 0 0 1 1 1 1 1 1 1 0 0 0 0 0 0 0 0 0
0 0 0 0 0 0 0 0 0 0 0 0 0 0 0 0 0 0 0 0 0 0 0 1 1 1 0 0 0 1 1 1 1 1 0 0 0 0 0 0 0 0 0 0
0 0 0 0 0 0 0 0 0 0 0 0 0 0 0 0 0 0 0 0 0 0 1 1 1 1 0 0 0 1 1 1 1 0 0 0 0 0 0 0 0 0 0 0
0 0 0 0 0 0 0 0 0 0 0 0 0 0 0 0 0 0 0 0 1 1 1 1 0 1 1 1 1 1 1 1 0 0 0 1 1 1 1 0 0 0 0 1
0 0 0 0 0 0 0 0 0 0 0 0 0 0 0 0 0 0 0 0 1 1 1 0 0 0 0 1 1 1 1 0 0 0 0 0 1 1 1 0 0 0 0 0
0 0 0 0 0 0 0 0 0 0 0 0 0 0 0 0 0 0 0 0 1 1 1 0 0 0 0 0 0 0 0 0 0 0 0 0 1 1 1 0 0 0 0 0
0 0 0 0 0 0 0 0 0 0 0 0 0 0 0 0 0 0 0 0 1 1 0 0 0 0 0 0 0 0 0 0 0 0 0 1 1 1 1 0 0 0 0 0
0 0 0 0 0 0 0 0 0 0 0 0 0 0 0 0 0 0 0 0 0 1 0 0 0 0 0 0 0 0 0 0 0 0 0 1 1 1 1 0 0 0 0 0
0 0 0 0 0 0 0 0 0 0 0 0 0 0 0 0 0 0 0 0 0 1 1 0 0 0 0 0 0 0 1 0 0 0 0 1 1 0 0 0 0 0 0 0
0 0 0 0 0 0 0 0 0 0 0 0 0 0 0 0 0 0 0 0 0 0 1 1 0 0 0 0 0 0 1 1 0 0 1 1 0 0 0 0 1 1 0 0
0 0 0 0 0 0 0 0 0 0 0 0 0 0 0 0 0 0 0 0 0 1 1 1 1 0 0 0 0 1 1 1 0 0 0 0 0 0 0 0 1 1 0 0
0 0 0 0 0 0 0 0 0 0 0 0 0 0 0 0 0 0 0 0 0 1 1 1 1 1 0 0 0 1 1 1 1 0 0 0 0 0 0 0 1 0 0 0
0 0 0 0 0 0 0 0 0 0 0 0 0 0 0 0 0 0 0 0 1 1 1 1 1 1 0 0 0 0 1 1 1 1 1 1 1 1 1 1 0 0 0 0
0 0 0 0 0 0 0 0 0 0 0 0 0 0 0 0 0 0 0 0 1 1 1 1 1 1 0 0 0 0 0 0 1 1 1 1 1 1 1 1 1 0 0 0
0 0 0 0 0 0 0 0 0 0 0 0 0 0 0 0 0 0 0 0 1 1 1 1 1 1 0 0 0 0 0 0 0 1 1 1 1 1 1 1 0 0 0 0
0 0 0 0 0 0 0 0 0 0 0 0 0 0 0 0 0 0 0 0 0 1 1 1 1 1 0 0 0 0 0 0 0 1 1 1 1 1 1 1 0 0 0 0
0 0 0 0 0 0 0 0 0 0 0 0 0 0 0 0 0 0 0 0 0 0 1 1 1 0 0 0 0 0 0 0 0 1 1 1 1 1 0 0 0 0 0 0
Wind_Speed
11 12 13 12 13 10 8 10 10 7 5 8 10 9 7 6 9 9 9 9 9 9 8 8 8 8 8 8 8 8 7 6 5 4 4 3 3 2 2 2 2 2 2 2
11 15 12 9 10 11 11 11 10 7 5 8 9 10 8 7 8 8 8 8 9 9 9 8 8 8 8 8 8 8 7 6 6 4 3 2 2 2 2 1 1 2 2 3
15 7 8 11 12 13 13 12 10 7 5 9 9 11 10 8 7 7 8 8 8 9 9 9 9 8 8 8 8 6 7 6 6 5 4 3 3 3 2 2 2 2 2 2
13 8 9 13 13 13 12 10 9 9 10 8 8 10 8 7 8 9 9 8 9 9 9 9 9 9 8 7 7 7 7 7 6 6 5 5 4 3 2 2 2 2 2 2
10 10 12 14 13 12 10 6 9 11 11 11 9 10 7 7 8 9 8 8 8 8 8 9 9 9 8 8 7 7 7 7 6 6 5 5 4 3 3 3 3 2 2 2
9 8 10 11 10 10 7 7 8 10 10 12 11 11 8 6 7 6 5 6 6 6 6 7 8 8 8 8 8 8 8 7 6 6 6 5 5 4 3 3 2 2 2 2
11 12 10 9 11 12 12 10 8 10 10 9 7 9 6 2 3 3 3 5 5 6 6 8 9 9 9 9 8 8 8 7 7 6 6 5 5 4 4 3 3 2 2 2
11 12 12 11 12 11 14 14 10 8 9 7 8 9 4 2 2 2 2 4 5 5 6 7 8 9 9 9 9 8 8 7 7 6 5 5 4 3 3 3 2 2 1 1
8 8 9 11 10 12 14 14 12 10 9 9 7 6 5 5 5 4 4 5 5 6 6 7 8 8 8 8 8 8 8 7 6 6 5 5 4 3 2 3 3 2 1 2
7 7 8 9 10 12 11 10 9 11 10 10 9 9 6 7 6 5 5 6 6 6 6 7 6 7 7 7 7 7 7 7 6 6 5 4 4 4 3 3 3 2 2 2
8 8 9 11 13 13 11 13 11 11 10 9 8 5 2 3 3 5 5 6 6 6 6 6 6 6 7 7 7 7 7 7 6 6 5 4 4 4 4 3 3 3 2 3
8 8 9 11 8 8 12 14 13 11 10 11 10 2 5 2 2 3 5 6 6 6 6 6 6 6 6 7 7 7 7 7 6 6 5 5 4 4 4 4 3 3 3 3
6 7 10 11 11 10 12 13 14 13 11 10 11 5 6 4 3 3 4 6 6 7 6 6 6 6 6 6 7 7 6 6 6 6 6 5 5 4 4 4 3 3 3 3
7 9 11 11 7 8 11 12 13 14 12 12 13 8 5 4 3 4 5 6 6 7 6 6 6 5 5 5 6 6 6 6 6 6 6 5 5 4 4 4 4 3 3 4
7 10 11 12 9 10 11 12 14 16 15 13 10 10 6 3 2 3 5 6 7 7 7 6 6 5 5 5 6 6 6 6 6 6 6 5 5 5 4 4 4 4 4 4
7 8 9 12 11 12 13 14 15 16 15 15 12 9 4 2 1 3 6 7 8 8 7 6 6 6 5 5 5 6 6 6 6 6 6 5 5 5 4 4 4 3 3 3
6 8 10 10 10 11 15 14 15 14 13 13 12 8 5 4 4 5 5 7 8 8 8 7 6 6 5 5 5 5 5 6 6 6 6 6 6 5 5 4 4 4 4 4
8 9 8 8 9 14 7 5 9 11 11 10 8 6 4 4 3 3 4 6 7 8 7 7 6 6 5 5 5 5 5 5 6 6 6 6 6 5 5 5 4 4 4 3
10 9 8 8 11 10 6 5 7 9 9 7 7 5 3 3 4 3 2 3 5 6 6 6 5 6 5 5 6 6 6 6 6 6 6 6 6 5 5 5 5 4 4 3
9 9 9 9 11 10 4 3 3 7 8 4 5 5 5 5 6 3 3 3 4 5 5 5 5 6 6 6 6 6 6 6 6 6 5 6 5 5 5 4 4 4 3 3
9 10 12 12 11 6 1 1 5 9 2 3 3 4 3 3 2 3 3 3 3 4 5 5 6 5 5 6 6 6 5 5 5 5 5 5 5 5 4 4 3 4 4 4
7 8 10 9 10 5 2 2 4 2 3 1 2 2 2 2 1 1 2 3 3 4 5 5 5 5 5 5 6 5 5 4 4 5 5 5 5 5 4 4 4 4 4 5
5 4 3 3 2 3 1 1 1 1 0 0 1 2 3 2 3 2 2 3 3 4 5 4 5 5 5 5 5 5 4 4 5 5 5 5 5 4 4 4 5 5 5 4
2 2 4 4 3 1 1 1 1 1 0 0 1 1 2 2 2 3 3 3 3 4 5 4 5 6 5 4 4 4 4 4 5 5 4 4 4 4 4 3 4 4 4 4
2 2 4 5 3 2 2 1 0 1 1 0 1 1 1 2 2 2 2 3 3 4 4 4 4 4 4 4 4 4 4 5 5 5 4 4 4 3 3 3 1 2 1 1
2 3 4 2 1 2 1 1 2 1 1 1 1 1 1 1 1 2 2 3 3 4 5 4 4 5 5 5 4 4 4 5 5 5 5 4 3 3 3 3 3 3 1 3
Wind_Direction
193 215 216 213 222 250 245 241 237 233 210 237 240 245 238 215 220 222 214 209 204 199 187 181 180 180 179 180 181 182 183 176 182 187 191 190 186 189 194 185 175 194 202 209
199 221 224 222 222 234 236 236 235 226 208 244 248 249 241 227 226 223 219 212 206 197 181 175 178 180 182 181 181 180 183 178 185 178 183 178 174 196 191 190 168 199 201 213
218 215 204 213 215 224 231 235 238 238 222 233 250 246 229 214 216 219 225 222 212 203 188 180 180 182 180 180 182 180 177 175 180 173 169 162 170 190 181 181 182 190 200 205
226 212 205 215 218 222 229 231 244 242 240 232 233 255 219 210 212 210 214 214 211 204 196 187 183 183 182 177 171 171 172 173 173 175 179 178 186 190 189 195 186 185 189 196
214 208 211 220 221 223 238 234 236 239 244 254 231 254 236 199 220 211 206 210 209 204 196 192 185 180 176 171 164 164 167 169 171 175 176 188 198 192 184 189 178 192 176 181
229 214 223 227 221 218 219 214 222 233 239 242 238 248 245 207 223 218 195 195 197 195 191 187 179 172 168 166 162 162 164 166 170 174 177 189 193 190 187 187 180 193 178 173
213 207 209 217 210 202 211 216 215 217 223 235 216 237 247 231 219 228 199 185 181 184 185 178 175 171 169 168 166 165 165 163 169 176 178 182 186 187 190 198 190 203 189 171
210 203 196 204 215 209 214 224 234 239 237 229 197 232 231 165 160 200 192 173 170 175 177 177 172 171 171 168 167 168 167 165 169 171 169 174 183 191 183 189 204 190 203 179
223 213 182 202 215 222 213 225 242 257 258 254 220 219 203 177 183 182 176 166 165 167 168 168 166 169 169 167 167 170 166 166 166 163 161 166 175 179 174 180 196 182 170 165
243 233 200 196 210 218 231 225 231 241 244 245 234 228 219 185 194 185 178 172 161 157 161 159 159 162 161 162 161 166 165 161 158 163 171 163 168 170 174 179 165 166 158 147
237 233 207 199 211 209 209 218 227 240 247 251 247 227 131 191 192 191 179 166 157 155 156 153 154 156 158 162 163 163 161 159 160 161 166 162 166 164 167 168 160 161 161 161
220 240 231 219 217 235 227 226 222 230 234 245 261 229 95 125 157 178 164 156 153 150 149 147 151 153 158 162 162 159 160 160 159 157 157 156 158 161 162 152 151 155 162 163
205 227 227 212 202 207 225 228 230 234 243 242 246 226 121 134 140 145 153 154 154 153 149 147 152 156 160 162 159 156 159 156 158 156 156 153 154 154 154 147 150 160 161 155
233 233 239 238 235 217 222 227 229 233 236 238 241 246 185 190 184 169 169 166 162 156 154 154 155 156 160 159 156 155 157 158 162 160 158 157 158 157 159 158 159 164 158 152
231 236 241 253 254 245 237 234 230 233 243 250 250 251 240 232 228 188 176 171 166 162 165 163 159 156 161 157 156 155 155 162 167 166 164 163 161 157 159 161 162 164 163 155
229 246 241 243 240 239 241 238 234 234 239 246 253 254 250 248 217 183 181 179 177 175 174 170 165 160 164 161 160 156 157 162 165 165 166 161 157 152 153 157 154 159 161 150
227 233 238 239 230 238 237 235 233 232 233 240 246 250 233 222 221 214 199 191 185 181 178 177 174 168 168 167 161 161 161 162 164 165 163 158 158 156 158 156 157 162 158 149
239 242 241 241 223 231 233 233 239 235 232 240 248 247 247 246 230 211 203 197 189 181 179 178 177 172 170 168 163 161 163 169 170 170 167 164 164 162 160 159 158 163 162 154
225 233 240 237 231 236 217 216 232 233 230 234 235 230 226 200 185 168 166 180 186 178 173 172 173 168 166 169 167 168 170 177 180 179 174 171 170 167 167 165 166 167 163 160
204 225 240 239 241 239 208 163 248 240 225 190 213 210 203 203 219 163 143 159 160 153 159 162 164 162 164 171 173 174 176 179 183 183 178 171 174 174 176 171 172 164 161 163
197 213 228 237 244 242 68 142 215 223 205 144 187 196 205 216 319 86 124 145 149 148 152 154 159 160 162 167 173 176 174 178 182 179 177 171 173 175 173 170 171 166 168 163
216 218 219 227 236 227 89 199 226 353 26 138 168 177 174 144 133 139 132 143 154 153 149 150 154 152 154 166 172 171 169 170 172 171 172 168 172 180 164 165 171 172 172 171
233 260 261 250 259 31 343 329 356 319 301 60 166 170 168 173 181 173 162 158 159 156 151 153 153 150 153 165 171 169 166 168 167 167 168 167 171 175 166 172 177 179 181 189
204 271 257 245 233 264 266 210 239 275 257 231 183 192 183 185 176 163 154 149 153 154 153 156 157 156 156 164 172 169 167 170 169 169 167 173 174 175 174 190 192 194 191 193
291 241 240 236 232 231 199 189 221 50 48 85 83 146 169 160 165 158 150 152 156 154 153 157 159 159 160 165 167 162 167 174 177 176 176 181 184 178 179 182 190 216 187 245
278 268 265 271 287 276 355 42 17 27 60 67 83 66 48 80 136 138 136 144 152 156 155 158 159 158 160 166 164 161 169 175 184 185 184 185 187 179 187 174 154 73 70 95